Jefferson, NC

6:48 AM EDT on September 20, 2019 (GMT -0400)
Ashe County

Weather History for KGEV - May, 2019

Change the Weather History Date:

Saturday, May 4, 2019

  Actual Average Record
Temperature  
Mean Temperature 62 °F -  
Max Temperature 71 °F 67 °F 79 °F (1981)
Min Temperature 54 °F 42 °F 22 °F (1986)
Degree Days  
Heating Degree Days 2    
Growing Degree Days 12 (Base 50)    
Moisture  
Dew Point 58 °F    
Average Humidity 88    
Maximum Humidity 100    
Minimum Humidity 48    
Precipitation  
Precipitation 0.03 in - - ()
Sea Level Pressure  
Sea Level Pressure 29.96 in    
Wind  
Wind Speed 2 mph (WSW)    
Max Wind Speed 12 mph    
Max Gust Speed 21 mph    
Visibility 8 miles    
Events Fog , Rain , Thunderstorm    
Averages and records for this station are not official NWS values.
T = Trace of Precipitation, MM = Missing Value Source: NWS Daily Summary

Daily Weather History Graph

Daily Weather History Graph

Search for Another Location

Airport or City:

Astronomy

May. 04, 2019 Rise Set
Actual Time 6:29 AM EDT 8:16 PM EDT
Civil Twilight 6:01 AM EDT 8:44 PM EDT
Nautical Twilight 5:27 AM EDT 9:17 PM EDT
Astronomical Twilight 4:52 AM EDT 9:53 PM EDT
Moon 6:36 AM EDT (5/4) 8:06 PM EDT (5/4)
Length of Visible Light 14h 42m
Length of Day
13h 46m
Waning Crescent, 0% of the Moon is Illuminated
May 4
Waning Crescent
May 4
New
May 11
First Quarter
May 18
Full
May 26
Last Quarter

Hourly Weather History & Observations

Time (EDT) Temp. Dew Point Humidity Pressure Visibility Wind Dir Wind Speed Gust Speed Precip Events Conditions
12:05 AM 60.3 °F 59.7 °F 98% 30.03 in 10.0 mi Calm Calm - N/A   Mostly Cloudy
12:25 AM 59.9 °F 59.7 °F 99% 30.04 in 10.0 mi NNW 4.6 mph - N/A   Overcast
12:45 AM 60.1 °F 59.9 °F 99% 30.04 in 10.0 mi Calm Calm - N/A   Overcast
1:05 AM 61.2 °F 59.9 °F 96% 30.03 in 10.0 mi Calm Calm - N/A   Overcast
1:25 AM 61.3 °F 59.5 °F 94% 30.03 in 10.0 mi Calm Calm - 0.01 in   Mostly Cloudy
1:45 AM 59.4 °F 59.0 °F 99% 30.02 in 0.8 mi Calm Calm - 0.01 in   Overcast
2:05 AM 58.6 °F 58.6 °F 100% 30.02 in 0.2 mi Calm Calm - N/A Fog Fog
2:25 AM 58.8 °F 58.8 °F 100% 30.02 in 0.2 mi Calm Calm - N/A Fog Fog
2:45 AM 57.6 °F 57.6 °F 100% 30.01 in 0.2 mi NW 4.6 mph - N/A Fog Fog
3:05 AM 58.3 °F 58.3 °F 100% 30.00 in 0.8 mi North 3.5 mph - N/A   Overcast
3:25 AM 59.5 °F 59.0 °F 98% 30.00 in 10.0 mi Calm Calm - N/A   Mostly Cloudy
3:45 AM 57.9 °F 57.2 °F 97% 29.99 in 1.0 mi Calm Calm - N/A   Overcast
4:05 AM 58.1 °F 57.7 °F 99% 29.98 in 10.0 mi Calm Calm - N/A   Scattered Clouds
4:25 AM 57.0 °F 57.0 °F 100% 29.98 in 1.2 mi Calm Calm - N/A   Mostly Cloudy
4:45 AM 57.9 °F 57.6 °F 99% 29.98 in 10.0 mi Calm Calm - N/A   Scattered Clouds
5:05 AM 55.2 °F 54.7 °F 98% 29.98 in 0.2 mi Calm Calm - N/A Fog Fog
5:25 AM 57.4 °F 57.2 °F 99% 29.98 in 10.0 mi Calm Calm - N/A   Mostly Cloudy
5:45 AM 57.7 °F 57.4 °F 99% 29.98 in 10.0 mi Calm Calm - N/A   Mostly Cloudy
6:05 AM 55.8 °F 55.2 °F 98% 29.98 in 1.0 mi Calm Calm - N/A   Mostly Cloudy
6:25 AM 54.3 °F 54.3 °F 100% 29.98 in 0.2 mi Calm Calm - N/A Fog Fog
6:45 AM 55.6 °F 55.6 °F 100% 29.99 in 3.0 mi Calm Calm - N/A   Mostly Cloudy
7:05 AM 55.0 °F 54.5 °F 98% 29.99 in 0.5 mi Calm Calm - N/A Fog Fog
7:25 AM 57.7 °F 57.2 °F 98% 30.00 in 10.0 mi Calm Calm - N/A   Overcast
7:45 AM 58.5 °F 57.2 °F 96% 30.00 in 10.0 mi Calm Calm - N/A   Overcast
8:05 AM 59.4 °F 57.9 °F 95% 29.99 in 10.0 mi NW 6.9 mph - N/A   Mostly Cloudy
8:25 AM 59.7 °F 58.1 °F 94% 30.00 in 10.0 mi Calm Calm - N/A   Mostly Cloudy
8:45 AM 60.6 °F 59.0 °F 94% 30.01 in 10.0 mi Calm Calm - N/A   Overcast
9:05 AM 61.7 °F 58.5 °F 89% 30.01 in 10.0 mi WNW 4.6 mph - N/A   Mostly Cloudy
9:25 AM 63.0 °F 57.9 °F 84% 30.01 in 10.0 mi WNW 8.1 mph - N/A   Mostly Cloudy
9:45 AM 63.0 °F 57.4 °F 82% 30.01 in 10.0 mi NW 5.8 mph - N/A   Mostly Cloudy
10:05 AM 64.6 °F 57.4 °F 77% 30.00 in 10.0 mi West 6.9 mph - N/A   Mostly Cloudy
10:25 AM 65.1 °F 56.5 °F 74% 30.00 in 10.0 mi WNW 10.4 mph - N/A   Mostly Cloudy
10:45 AM 66.4 °F 56.5 °F 70% 29.99 in 10.0 mi WNW 6.9 mph - N/A   Scattered Clouds
11:05 AM 67.5 °F 56.3 °F 67% 30.00 in 10.0 mi WSW 6.9 mph - N/A   Clear
11:25 AM 68.9 °F 55.4 °F 62% 30.00 in 10.0 mi West 6.9 mph - N/A   Clear
11:45 AM 68.4 °F 55.2 °F 63% 30.00 in 10.0 mi Calm Calm - N/A   Mostly Cloudy
12:05 PM 68.4 °F 59.2 °F 72% 29.99 in 10.0 mi SE 3.5 mph - N/A   Overcast
12:25 PM 67.5 °F 59.5 °F 76% 29.99 in 10.0 mi Calm Calm - N/A   Mostly Cloudy
12:45 PM 68.5 °F 59.7 °F 73% 29.99 in 10.0 mi Calm Calm - N/A   Mostly Cloudy
1:05 PM 68.7 °F 61.0 °F 76% 29.98 in 10.0 mi East 5.8 mph - N/A   Mostly Cloudy
1:25 PM 71.4 °F 50.7 °F 48% 29.97 in 10.0 mi West 6.9 mph - N/A   Scattered Clouds
1:45 PM 71.8 °F 51.4 °F 49% 29.96 in 10.0 mi SSW 4.6 mph - N/A   Scattered Clouds
2:05 PM 71.4 °F 56.5 °F 59% 29.95 in 10.0 mi Calm Calm - N/A   Mostly Cloudy
2:25 PM 70.0 °F 59.4 °F 69% 29.95 in 10.0 mi SE 4.6 mph - N/A   Overcast
2:45 PM 70.2 °F 60.1 °F 70% 29.93 in 10.0 mi SSE 4.6 mph - N/A   Overcast
3:05 PM 69.4 °F 59.9 °F 72% 29.93 in 10.0 mi SSE 4.6 mph - N/A   Overcast
3:25 PM 69.8 °F 61.0 °F 73% 29.92 in 10.0 mi SE 4.6 mph - N/A   Overcast
3:45 PM 68.0 °F 61.2 °F 79% 29.90 in 10.0 mi SE 3.5 mph - N/A   Overcast
4:05 PM 67.8 °F 61.2 °F 79% 29.90 in 10.0 mi SSE 6.9 mph - N/A Rain Light Rain
4:25 PM 64.0 °F 60.1 °F 87% 29.91 in 5.0 mi Calm Calm - N/A Rain Heavy Rain
4:45 PM 65.8 °F 61.9 °F 87% 29.92 in 10.0 mi Calm Calm - 0.01 in Rain , Thunderstorm Light Thunderstorms and Rain
5:05 PM 65.5 °F 57.7 °F 76% 29.93 in 10.0 mi SW 9.2 mph - N/A Rain Light Rain
5:25 PM 60.8 °F 55.9 °F 84% 29.92 in 7.0 mi West 11.5 mph 20.7 mph 0.01 in Rain , Thunderstorm Light Thunderstorms and Rain
5:45 PM 61.5 °F 55.8 °F 81% 29.91 in 10.0 mi West 10.4 mph 18.4 mph 0.01 in   Overcast
6:05 PM 60.8 °F 56.3 °F 85% 29.90 in 10.0 mi Calm Calm - N/A   Mostly Cloudy
6:25 PM 60.8 °F 56.5 °F 86% 29.89 in 10.0 mi Calm Calm - N/A Rain Light Rain
7:05 PM 60.3 °F 56.7 °F 88% 29.87 in 10.0 mi Calm Calm - N/A   Scattered Clouds
7:25 PM 60.1 °F 57.2 °F 90% 29.87 in 10.0 mi Calm Calm - N/A   Mostly Cloudy
7:45 PM 59.5 °F 57.6 °F 93% 29.88 in 10.0 mi Calm Calm - N/A   Scattered Clouds
8:05 PM 59.4 °F 57.4 °F 93% 29.88 in 10.0 mi Calm Calm - N/A   Clear
8:25 PM 59.0 °F 57.2 °F 94% 29.88 in 10.0 mi Calm Calm - N/A   Clear
8:45 PM 58.8 °F 57.7 °F 96% 29.89 in 10.0 mi Calm Calm - N/A   Clear
9:05 PM 58.8 °F 57.6 °F 96% 29.90 in 10.0 mi Calm Calm - N/A   Scattered Clouds
9:25 PM 58.6 °F 57.4 °F 96% 29.91 in 10.0 mi Calm Calm - N/A   Overcast
9:45 PM 58.1 °F 57.2 °F 97% 29.90 in 10.0 mi Calm Calm - N/A   Mostly Cloudy
10:05 PM 58.1 °F 57.4 °F 97% 29.90 in 10.0 mi Calm Calm - N/A   Scattered Clouds
10:25 PM 58.1 °F 57.7 °F 99% 29.90 in 10.0 mi Calm Calm - N/A   Mostly Cloudy
10:45 PM 58.5 °F 58.1 °F 99% 29.89 in 10.0 mi Calm Calm - N/A   Overcast
11:05 PM 58.8 °F 57.7 °F 96% 29.88 in 10.0 mi Calm Calm - N/A   Overcast
11:25 PM 58.5 °F 57.6 °F 97% 29.87 in 10.0 mi Calm Calm - N/A   Overcast
11:45 PM 58.1 °F 57.7 °F 99% 29.87 in 10.0 mi Calm Calm - N/A   Overcast